Accueil
METAR-TAF:

METAR-TAF

Aéroports :

Marion County Regional Airport

Flippin, Arkansas, États-Unis

latitude: 36-18N, longitude: 092-28W, altitude: 350 m

Observation

Le bulletin a été fait il y a 30 minutes, à 15:56 UTC
Vent 9 kt de nord/nord-ouest, variant entre ouest/nord-ouest et nord
Température 1°C
Humidité 40%
Pression 1033 hPa
Visibilité: 16.1 km
Ciel clair

METAR: KFLP 191556Z AUTO 33009KT 290V360 10SM CLR 01/M11 A3051 RMK AO2 SLP338 T00111106 FZRANO

Heure: 10:26 (16:26 UTC)


TAF: absent

Observations et prévisions météorologiques de plus de 4000 aéroports (messages METAR et TAF).

Les stations disponibles sont représentées par des disques jaunes et rouges sur la carte.

Passer la souris dessus pour voir le nom de la station.

Cliquer dessus pour voir les observations et prévisions météorologiques.

Pour changer de carte: cliquez sur les boutons verts avec une croix noire pour zoomer, sur le bouton vert avec un tiret pour effectuer un zoom arrière, ou sur les flèches vertes pour les cartes adjacentes.


METAR-TAF: